Location: Seattle
(47.6064°N, 122.3308°W)
Time: 00:33:51
(UTC-07:00)

STRAND 1 - Pass Details

Date: 03 April 2023
Orbit: 767 x 779 km, 98.4° (Epoch: 02 June)

Event Time Altitude Azimuth Distance (km) Brightness Sun altitude
Rises 20:25:31 0° 11° (N) 3,251 ? -8.0°
Reaches altitude 10° 20:27:51 10° 9° (N) 2,319 ? -8.3°
Maximum altitude 20:32:54 65° 288° (WNW) 843 ? -9.1°
Drops below altitude 10° 20:37:55 10° 208° (SSW) 2,303 ? -9.9°
Sets 20:40:14 0° 205° (SSW) 3,226 ? -10.3°
